Regional Weather Roundup
Issued by NWS

Home | Current Version | Previous Version | Text Only | Print | Product List | Glossary On
Versions: 1 2 3 4 5 6 7 8 9 10 11 12 13 14 15 16 17 18 19 20 21 22 23 24 25 26 27 28 29 30 31 32 33 34 35 36 37 38 39 40 41 42 43 44 45 46 47 48 49 50
000
ASUS43 KBIS 241202
RWRND

NORTH DAKOTA REGIONAL WEATHER ROUNDUP
NATIONAL WEATHER SERVICE BISMARCK ND
700 AM CDT TUE MAY 24 2016

NOTE: "FAIR" INDICATES FEW OR NO CLOUDS BELOW 12,000 FEET WITH NO
SIGNIFICANT WEATHER AND/OR OBSTRUCTIONS TO VISIBILITY.


NDZ001>003-009>011-017-241300-
NORTHWEST NORTH DAKOTA

CITY           SKY/WX    TMP DP  RH WIND       PRES   REMARKS
WILLISTON      PTCLDY    45  41  86 SW7       29.85R
6HR MIN TEMP:  42; 6HR MAX TEMP:  49;

MINOT          CLEAR     51  42  71 SW3       29.82R
$$

NDZ018>021-031>035-040>046-241300-
SOUTHWEST NORTH DAKOTA

CITY           SKY/WX    TMP DP  RH WIND       PRES   REMARKS
BISMARCK       CLEAR     50  44  80 W7        29.84R
6HR MIN TEMP:  43; 6HR MAX TEMP:  62; 6HR PCP: TRACE;

DICKINSON      CLEAR     40  36  86 W6        29.85R
GARRISON         N/A     46  40  79 VRB3      29.83R
6HR MIN TEMP:  40; 6HR MAX TEMP:  52;

HETTINGER ARPT PTCLDY    39  35  86 CALM      29.88R
$$

NDZ004>008-012>016-024-026-027-054-241300-
NORTHEAST NORTH DAKOTA

CITY           SKY/WX    TMP DP  RH WIND       PRES   REMARKS
GRAND FORKS    CLOUDY    59  51  75 N9        29.78F
DEVILS LAKE    MOSUNNY   58  46  64 VRB3      29.83R
$$

NDZ022-023-025-028>030-036>039-047>053-241300-
SOUTHEAST NORTH DAKOTA

CITY           SKY/WX    TMP DP  RH WIND       PRES   REMARKS
FARGO          CLOUDY    61  49  64 NE6       29.79F
6HR MIN TEMP:  59; 6HR MAX TEMP:  65;

JAMESTOWN      CLOUDY    55  51  86 N5        29.79R
$$




USA.gov is the U.S. government's official web portal to all federal, state and local government web resources and services.